Terug naar catalogus

STARLINK-30084

ActiefCommunicatieVLEO
NORAD 56825·PAYLOAD·🇺🇸 United States

Gelanceerd Jun 4, 2023 vanaf Cape Canaveral Space Force Station

Loading…

Volgende Passages (komende 24 uur)

TLE

VersSource: CelesTrak SupGP

Epoch: Sep 15, 2026, 02:24 UTC

1 56825C 23079C   26258.10048611  .00059753  00000+0  21649-2 0  2581
2 56825  43.0012 116.9966 0001617 279.1389 329.6440 15.27538407    11

Volg STARLINK-30084 in realtime met AllMySat

Download on the App Store